Showing default

YAMAL 401, 40345

Orbit data source: Space-Track

YAMAL 401, 40345 is a payload satellite owned by Gazprom KS (CIS) in GEO that was launched on Mon, 15 Dec 2014 UTC via a PROTON-M/BRIZ-M launch vehicle from the Tyuratam Missile And Space Complex (TTMTR). Payloads include a variety of satellites, spacecraft, and rockets equipped with specific instruments for various scientific and technological missions. These include communications satellites like Starlink; space stations such as the ISS; scientific satellites like the Hubble; Earth observation satellites from companies like Planet Labs, Umbra, and HawkEye 360; GPS; miniature CubeSats for education and research; and military/defense satellites.

Not visible in the next 10 days
YAMAL 401 details
Identifier
40345, 2014-082A
Orbit
GEO
Last TLE update14 hours ago
Origin
Flag of CISGazprom KS (CIS)
ManufacturerResehetnev ISS
MissionOperational Commercial Communications
Bus & MotorEKSPRESS-2000, AOCS
Mass2,976 kg wet, 2,500 kg dry
Launch date (UTC)
2014-12-15 (10 years ago)
Launch vehicle
PROTON-M/BRIZ-M
Launch site
Tyuratam Missile And Space Complex (TTMTR)
Object type
Payload
Rocket body
Debris
Shape & HBRBox + 2 Pan, 35 m
Radar Cross Section29.721 m², Large (>1 m²)

Expand to show TLE details & history

TLE from 14 hours ago
0 YAMAL 401
1 40345U 14082A   24361.11850992 -.00000200  00000-0  00000-0 0  9995
2 40345   0.0317 254.4364 0000330 330.9903   2.2830  1.00272062 36521
Epoch: 2024-12-26T02:50Z
Definitive object data (Epoch: 2024-12-26T02:50:39.257Z)
Latitude-0.02589°
Longitude89.93628°
Altitude35,784.62 km
Speed3.075 km/s
True Right ascension15h 10m 48s
True Declination0° 01' 33"
Sunlit
Object was in daylight at TLE epoch
Visualization TLE readout
Latitude0.01584°
Longitude-53.89098°
Altitude35,787.147 km
Speed3.075 km/s
Apparent Right ascension05h 29m 17s
Apparent Declination-4° 56' 43"
Sunlit
Object is in daylight
Visualization observer readout
Local Sidereal Time16:35:17
Azimuth337.285° NNW
Elevation-52.972°
Doppler factor1
Orbital elements
Apogee altitude35,788.979 km
Perigee altitude35,786.196 km
Semi-major axis42,165.725 km
Eccentricity0.000033
Inclination0.0317°
RAAN254.4364°
Arg. of periapsis330.9903°
True anomaly2.28315°
Mean anomaly2.283°
Eccentric anomaly2.28308°
Mean motion0.25067 °/min
BSTARUnknown
Orbital period1436.15 mins
Loading historical data...
40345 neighbors
Authenticating...
Loading maneuver chart data...
Loading historical data...
Loading historical data...
Loading historical data...
Loading historical data...
Loading historical data...
Loading historical data...
Loading historical data...
Other satellites on launch #82 in the year 2014 (2014-12-15 UTC)

YAMAL 401 Visibility forecast

Observer location: undefined°, undefined

YAMAL 401 is not visible in the next 10 days
Span
Click to sort rows by Start time (UTC) header in descending order
Start Az.
Max El. time (UTC)
Max El. Az.
Max El.
End time (UTC)
End Az.
|